Location: Aytr�
(46.1357°N, 1.1145°W)
Time: 02:35:20
(UTC+00:00)

ISS - Pass Details

Date: 18 September 2021
Orbit: 417 x 423 km, 51.6° (Epoch: 27 October)

Event Time Altitude Azimuth Distance (km) Brightness Sun altitude
Rises 20:20:33 0° 254° (WSW) 2,359 0.7 -22.5°
Reaches altitude 10° 20:22:40 10° 259° (W) 1,498 -0.3 -22.9°
Enters shadow 20:25:23 47° 297° (WNW) 567 -2.8 -23.3°
